Regional Weather Roundup
Issued by NWS Mobile, AL

Current Version | Previous Version | Text Only | Print | Product List | Glossary On
Versions: 1 2 3 4 5 6 7 8 9 10 11 12 13 14 15 16 17 18 19 20 21 22 23 24 25 26 27 28 29 30 31 32 33 34 35 36 37 38 39 40 41 42 43 44 45 46 47 48 49 50
000
ASUS44 KMOB 060612
RWRMOB
REGIONAL WEATHER ROUNDUP
NATIONAL WEATHER SERVICE MOBILE AL
100 AM CDT FRI MAY 06 2016

NOTE: "FAIR" INDICATES FEW OR NO CLOUDS BELOW 12,000 FEET WITH NO
      SIGNIFICANT WEATHER AND/OR OBSTRUCTIONS TO VISIBILITY.

  * THESE STATIONS ARE PART OF THE UNIVERSITY OF SOUTH ALABAMA
    MESONET AND ARE NOT UNDER NWS OR FAA QUALITY CONTROL.

ALZ061>064-060700-
COASTAL ALABAMA

CITY           SKY/WX    TMP DP  RH WIND       PRES   REMARKS
MOBILE REG APT CLEAR     57  46  66 NW6       29.97R
6HR MIN TEMP:  57; 6HR MAX TEMP:  71;

BROOKLEY FIELD CLEAR     62  44  51 NW12      29.97R
6HR MIN TEMP:  60; 6HR MAX TEMP:  73;

USA CAMPUS*    NOT AVBL
DOG RIVER*     NOT AVBL


CITY           SKY/WX    TMP DP  RH WIND       PRES   REMARKS
MOUNT VERNON*  NOT AVBL
SARALAND*      NOT AVBL
BAY MINETTE*   NOT AVBL
LOXLEY*        NOT AVBL
ROBERTSDALE*   NOT AVBL
FAIRHOPE*      NOT AVBL
ELBERTA*       NOT AVBL
FOLEY*         NOT AVBL
GRAND BAY*     NOT AVBL
DAUPHIN ISLND* NOT AVBL
BON SCOUR NWR* NOT AVBL
GULF SHORES    CLEAR     60  47  61 NW6       29.94R

$$

ALZ051>060-060700-
INTERIOR SOUTHWEST AND SOUTH CENTRAL ALABAMA

CITY           SKY/WX    TMP DP  RH WIND       PRES   REMARKS
GREENVILLE     NOT AVBL
EVERGREEN      CLEAR     52  44  74 NW3       29.95R
6HR MIN TEMP:  50; 6HR MAX TEMP:  69;

CASTLEBERRY*   NOT AVBL
ATMORE*        NOT AVBL
DIXIE*         NOT AVBL
ANDALUSIA/OPP  CLEAR     58  43  57 NW5       29.92R
6HR MIN TEMP:  58; 6HR MAX TEMP:  72;

ANDALUSIA*     NOT AVBL
FLORALA APT    PTCLDY    52  45  77 NW3       29.94R
6HR MIN TEMP:  51; 6HR MAX TEMP:  67;

FLORALA*       NOT AVBL

$$

FLZ001>006-060700-
WESTERN FLORIDA PANHANDLE

CITY           SKY/WX    TMP DP  RH WIND       PRES   REMARKS
PENSACOLA      CLEAR     60  44  55 N8        29.92S
6HR MIN TEMP:  60; 6HR MAX TEMP:  73;

NAS PENSACOLA  NOT AVBL
MILTON         CLEAR     58  43  57 NW7       29.93S
6HR MIN TEMP:  53; 6HR MAX TEMP:  71;

WHTNG S FIELD  PTCLDY    56  46  69 NW5       29.93S
6HR MIN TEMP:  56; 6HR MAX TEMP:  72;



CITY           SKY/WX    TMP DP  RH WIND       PRES   REMARKS
WALNUT HILL*   NOT AVBL
JAY*           NOT AVBL
DUKE FIELD     CLEAR     54  41  61 NW3       29.91R
CRESTVIEW      PTCLDY    49  43  80 N5        29.93S
6HR MIN TEMP:  49; 6HR MAX TEMP:  71;

VALPARAISO     CLEAR     56  42  61 NW7       29.91S
6HR MIN TEMP:  56; 6HR MAX TEMP:  72;

DESTIN         CLEAR     68  46  45 NW6       29.91S
6HR MIN TEMP:  65; 6HR MAX TEMP:  74;


$$

MSZ076-079-060700-
INTERIOR SOUTHEAST MISSISSIPPI

CITY           SKY/WX    TMP DP  RH WIND       PRES   REMARKS
LEAKESVILLE*   NOT AVBL
AGRICOLA*      NOT AVBL

$$

MARINE OBSERVATIONS

STATION/POSITION TIME  TEMP    WIND        PRES    WAVE
                       AIR SEA DIR/SP/G            HT/PER
                 (UTC) (F)     (DEG/KT/KT) (MB)    (FT/S)
PASCAGOULA       0500   64     330/  7/  9 1013.8R
PETIT BOIS ISLND 0430   69     340/ 17/ 20 1014.6R
GRAND BAY        0400   66     330/  8     1015.0S
KATRINA CUT      0500   69     340/ 17       N/A
CEDAR POINT      0500   65     340/ 11     1013.2S
E DAUPHIN ISLAND 0600   67     340/ 20/ 22 1013.9R
MIDDLE BAY LIGHT 0500   68     320/ 19     1013.9R
USCG MOBILE BAY  0500   64 74  320/  5/  9 1014.6R
STATE DOCKS      0500   64                 1014.0R
MEAHER PARK      0500   63     340/  4     1013.9R
WEEKS BAY        0445   55                   N/A
FORT MORGAN      0500   70     350/ 20/ 23 1013.0R
12 S ORANGE BCH  0550   71 74  340/ 21/ 25 1012.4F   2/ 3
PENSACOLA BAY    0500          360/  3/  7 1013.6R
64 S DAUPHIN ISL 0500   73 74  360/ 17/ 21 1013.5R

$$

SELECTED LOCATIONS ACROSS THE REGION

CITY           SKY/WX    TMP DP  RH WIND       PRES   REMARKS
NEW ORLEANS    CLEAR     69  47  45 N10       29.98S
GULFPORT       PTCLDY    61  44  53 N8        29.97R
PASCAGOULA AP  CLEAR     59  46  62 NW6       29.96S
PASCAGOULA*    NOT AVBL
HATTIESBURG    PTCLDY    52  46  80 CALM      30.00R
LAUREL         PTCLDY    54  39  58 N7        30.00S
MERIDIAN       CLEAR     51  45  79 CALM      30.00R
JACKSON        PTCLDY    53  44  71 CALM      30.00R
MONTGOMERY     CLEAR     57  41  55 N6        29.96R
TROY           CLEAR     54  43  66 N8        29.94R
KINSTON*       NOT AVBL
GENEVA*        NOT AVBL
ASHFORD*       NOT AVBL
DOTHAN         CLEAR     56  40  55 N10       29.94R
PANAMA CITY    CLEAR     53  46  77 NW6       29.89S

$$




USA.gov is the U.S. government's official web portal to all federal, state and local government web resources and services.